Change the Weather History Date:

Saturday, March 8, 2014

  Actual Average Record
Temperature  
Mean Temperature 12 °F -  
Max Temperature 43 °F 17 °F 57 °F (1984)
Min Temperature -18 °F -7 °F -22 °F (2007)
Degree Days  
Heating Degree Days 52    
Moisture  
Dew Point -7 °F    
Average Humidity 65    
Maximum Humidity 100    
Minimum Humidity 42    
Precipitation  
Precipitation 0.24 in - - ()
Sea Level Pressure  
Sea Level Pressure 29.50 in    
Wind  
Wind Speed 4 mph (NW)    
Max Wind Speed 20 mph    
Max Gust Speed -    
Visibility 9 miles    
Events Rain    
Averages and records for this station are not official NWS values.
T = Trace of Precipitation, MM = Missing Value Source: NWS Daily Summary

Daily Weather History Graph

Daily Weather History Graph

Search for Another Location

Airport or City:

Trip Planner

Search our weather history database for the weather conditions in past years. The results will help you decide how hot, cold, wet, or windy it might be!

Date:

Astronomy

Mar. 08, 2014 Rise Set
Actual Time 7:39 AM AKST 6:36 PM AKST
Civil Twilight 6:51 AM AKST 7:24 PM AKST
Nautical Twilight 5:54 AM AKST 8:21 PM AKST
Astronomical Twilight 4:54 AM AKST 9:21 PM AKST
Moon 10:05 AM AKST (3/8) 4:04 AM AKST (3/8)
Length of Visible Light 12h 33m
Length of Day
10h 57m
First Quarter, 53% of the Moon is Illuminated
Mar 8
First Quarter
Mar 16
Full
Mar 23
Last Quarter
Mar 30
New
Apr 7
First Quarter

Hourly Weather History & Observations

Time (AKST) Temp. Windchill Dew Point Humidity Pressure Visibility Wind Dir Wind Speed Gust Speed Precip Events Conditions
12:53 AM -8.0 °F - -14.1 °F 75% 29.64 in 10.0 mi Calm Calm - N/A   Clear
1:53 AM -11.9 °F -21.5 °F -17.0 °F 78% 29.63 in 10.0 mi SSW 3.5 mph - N/A   Clear
3:53 AM -16.1 °F - -22.0 °F 74% 29.61 in 10.0 mi Calm Calm - N/A   Clear
4:53 AM -18.9 °F - -24.0 °F 78% 29.60 in 10.0 mi Calm Calm - N/A   Clear
5:53 AM -20.0 °F - -25.1 °F 78% 29.59 in 10.0 mi Calm Calm - N/A   Clear
6:53 AM -20.9 °F - -27.0 °F 73% 29.58 in 10.0 mi Calm Calm - N/A   Clear
7:53 AM -23.1 °F - -29.0 °F 74% 29.57 in 10.0 mi Calm Calm - N/A   Clear
8:53 AM -18.0 °F - -24.0 °F 74% 29.56 in 10.0 mi Calm Calm - N/A   Clear
9:53 AM -9.9 °F - -15.0 °F 78% 29.55 in 10.0 mi Calm Calm - N/A   Clear
10:53 AM 1.0 °F - -11.0 °F 57% 29.54 in 10.0 mi Calm Calm - N/A   Clear
11:53 AM 5.0 °F - -11.0 °F 48% 29.53 in 10.0 mi Calm Calm - 0.00 in   Clear
12:53 PM 9.0 °F -2.2 °F -9.9 °F 42% 29.51 in 10.0 mi North 6.9 mph - 0.00 in   Clear
1:53 PM 10.0 °F -1.9 °F -9.0 °F 42% 29.49 in 10.0 mi NNW 8.1 mph - 0.00 in   Clear
2:53 PM 10.0 °F 0.4 °F -9.0 °F 42% 29.49 in 10.0 mi NNW 5.8 mph - 0.00 in   Clear
3:53 PM 9.0 °F -2.2 °F -9.0 °F 44% 29.47 in 10.0 mi NW 6.9 mph - 0.00 in   Clear
4:53 PM 10.0 °F 3.6 °F -9.0 °F 42% 29.47 in 10.0 mi NW 3.5 mph - 0.00 in   Clear
5:53 PM 7.0 °F - -9.9 °F 46% 29.46 in 10.0 mi Calm Calm - 0.00 in   Clear
6:53 PM 5.0 °F -4.1 °F -11.0 °F 48% 29.45 in 10.0 mi Variable 4.6 mph - N/A   Clear
7:53 PM 3.0 °F -11.5 °F -11.9 °F 50% 29.47 in 10.0 mi NW 9.2 mph - N/A   Clear
8:53 PM 1.0 °F -8.7 °F -13.0 °F 52% 29.47 in 10.0 mi NW 4.6 mph - N/A   Clear
9:53 PM -0.0 °F - -14.1 °F 52% 29.47 in 10.0 mi Calm Calm - N/A   Clear
10:53 PM -0.9 °F -8.9 °F -13.0 °F 57% 29.47 in 10.0 mi Variable 3.5 mph - N/A   Clear
11:53 PM -0.9 °F -11.0 °F -13.0 °F 57% 29.47 in 10.0 mi NW 4.6 mph - N/A   Clear